Wetbulb
50.67 50.75 51.18 50.97 50.91 50.93 51.18 51.56 51.68 51.91 52.38 52.69 52.63 52.61 52.82 52.63 51.86 46.27 43.69 49.35 54.62 59.13 58.21 51.16 46.93 46.79 49.49 45.41 44.21 43.01 36.08 29.80 34.34 36.34 39.59 46.21 45.06 47.27 46.20 43.22 46.28 57.21 60.06 61.06 62.61
50.51 50.72 50.81 50.74 50.78 50.84 50.90 51.03 51.49 51.89 52.27 52.42 52.52 52.50 52.55 52.35 45.89 41.61 50.91 59.30 59.25 56.93 46.53 46.92 45.14 46.37 43.52 43.62 42.46 38.97 31.52 34.34 38.91 41.02 41.22 44.77 41.08 43.80 44.99 44.35 45.04 48.34 59.55 61.34 63.07
49.92 50.07 50.37 50.63 50.53 50.59 50.60 51.07 51.57 52.22 52.52 52.67 52.59 52.65 52.54 49.69 42.62 41.92 53.85 58.20 58.93 51.28 44.11 44.29 44.38 45.09 41.35 42.59 41.96 37.27 36.91 39.25 39.77 42.52 43.88 43.03 42.94 45.40 42.46 41.77 45.15 46.62 52.87 59.58 60.55
49.40 49.72 49.93 50.26 50.33 50.26 50.50 51.21 51.68 52.16 52.49 52.89 53.05 52.84 52.34 43.86 29.44 41.08 56.15 56.54 55.97 48.34 44.48 41.57 40.72 40.01 38.63 36.59 40.65 37.74 41.66 42.18 41.49 44.12 44.47 42.14 44.17 43.15 43.71 44.74 47.46 47.03 50.80 59.04 59.15
48.83 49.07 49.54 49.91 50.07 50.25 50.79 51.25 51.57 51.74 52.24 52.84 53.05 52.52 44.43 36.63 37.46 45.25 53.40 50.04 45.93 45.08 41.39 39.79 37.81 37.01 33.81 34.14 36.60 37.41 40.77 42.06 43.41 44.66 44.13 46.40 43.66 43.90 44.36 46.58 47.25 46.86 47.83 57.20 58.88
49.73 49.36 49.28 49.45 49.67 50.18 50.71 50.88 51.03 51.22 51.76 52.66 52.84 51.53 37.78 32.78 43.59 45.12 44.60 44.70 42.67 41.51 40.48 39.55 37.46 38.26 35.64 33.93 34.04 37.87 37.59 37.55 40.64 42.54 44.32 43.69 44.80 44.42 46.48 46.38 45.54 45.23 45.55 47.41 58.49
50.11 49.75 49.85 49.66 49.70 49.98 50.32 50.47 50.67 51.12 51.64 52.32 52.13 46.28 37.89 36.54 44.49 44.80 45.59 43.36 43.12 41.57 39.35 41.48 40.73 37.20 36.32 33.60 38.05 37.02 33.18 36.60 38.80 40.31 41.90 45.42 41.47 42.85 47.36 46.67 44.19 43.16 45.00 46.47 49.09
50.43 49.98 49.88 49.62 49.80 49.71 50.07 50.34 51.41 51.68 51.30 51.97 50.23 42.92 33.84 45.03 46.38 46.26 43.38 44.00 44.26 42.34 41.50 42.47 41.32 38.30 35.74 36.96 35.06 31.79 32.78 28.19 36.78 39.74 42.24 42.72 36.28 44.51 47.58 45.23 44.20 42.71 43.59 45.13 46.70
50.33 50.18 49.79 50.08 50.49 50.28 50.28 51.14 52.78 52.11 51.74 50.62 43.88 40.08 33.28 47.40 42.89 44.28 43.64 41.60 43.40 43.91 43.37 47.06 40.29 35.25 34.78 29.26 25.83 27.82 22.90 26.55 31.08 41.22 40.09 41.05 36.94 43.14 47.53 45.72 44.53 43.66 41.84 43.30 44.84
50.45 50.13 49.69 50.06 50.00 49.75 50.44 49.18 53.44 50.48 49.52 48.83 46.03 33.18 37.55 35.96 41.13 43.26 42.32 43.44 41.48 41.31 39.36 37.67 32.54 29.29 27.81 25.70 18.55 20.85 23.22 25.13 28.09 36.05 38.55 38.34 38.56 43.27 45.93 45.67 44.63 44.96 41.84 42.19 43.50
50.56 50.18 49.63 49.28 49.48 49.64 44.69 38.34 34.92 33.08 37.73 34.78 34.42 35.87 37.89 41.50 42.57 41.06 42.49 41.76 39.55 36.86 30.53 33.75 27.56 24.29 27.69 29.24 31.00 29.26 26.98 25.76 29.84 35.43 36.00 36.70 39.16 42.27 45.92 44.16 45.29 46.41 43.60 41.67 43.03
50.42 50.12 49.40 48.70 49.02 50.00 41.12 37.68 36.58 36.29 30.45 37.46 37.73 38.00 40.64 40.38 35.48 39.23 42.56 35.99 35.21 29.24 32.65 29.86 25.86 32.07 33.31 32.69 30.64 28.94 26.35 25.70 30.58 35.34 34.96 36.78 36.17 40.30 43.33 43.27 45.69 46.94 47.25 44.24 42.22
50.21 49.77 49.00 48.47 49.20 43.68 39.79 39.57 42.31 40.88 28.72 35.17 38.98 38.47 38.55 38.72 34.50 35.98 38.50 35.32 32.54 30.27 29.48 27.09 31.39 36.20 34.30 32.14 30.38 29.23 26.47 26.78 28.49 33.53 37.02 37.05 34.46 37.97 42.30 43.59 45.13 44.06 45.78 46.74 43.51
50.10 49.15 48.67 48.80 43.68 39.59 39.32 44.56 42.93 40.69 24.37 29.26 32.71 35.50 37.96 36.07 33.75 38.53 39.10 35.89 32.23 27.31 30.76 29.64 34.93 33.58 32.45 31.08 33.33 28.28 33.01 31.31 30.43 30.36 24.78 36.77 25.72 34.47 38.07 40.67 42.83 44.18 43.12 42.68 43.96
49.67 48.31 48.36 45.66 37.59 39.02 42.71 44.14 42.82 34.68 7.46 30.40 33.02 39.45 37.57 34.46 34.19 35.78 38.30 34.99 28.29 28.76 29.86 25.84 28.95 30.15 30.38 32.19 34.78 30.72 34.93 31.28 31.20 30.87 30.12 30.12 30.44 32.12 36.89 35.45 38.61 41.79 44.10 45.50 46.79
48.71 47.85 47.57 39.14 37.49 40.54 42.73 43.08 35.66 18.81 7.32 28.28 32.78 31.04 31.36 32.81 32.42 34.48 34.46 35.98 33.57 29.07 29.28 28.82 33.56 34.89 33.70 35.36 35.49 35.95 33.38 30.42 30.94 29.65 23.85 27.63 29.35 31.42 33.27 34.92 36.81 39.34 40.54 43.37 45.93
48.03 47.60 44.74 40.89 37.71 41.54 42.26 37.10 18.96 8.57 27.90 26.42 26.49 29.61 28.45 27.87 29.86 30.10 28.59 27.39 23.52 21.36 22.27 26.10 27.95 32.63 36.23 32.00 35.46 33.14 29.59 19.57 19.32 12.95 19.94 30.28 30.71 31.68 36.99 37.17 38.04 38.56 39.43 40.66 43.82
47.86 47.30 42.52 41.74 38.76 40.42 37.60 26.43 8.37 20.81 25.23 30.17 28.39 28.86 25.49 28.06 27.38 28.68 25.98 23.43 28.27 25.25 21.21 19.18 18.80 28.60 35.07 32.86 31.62 31.71 29.25 20.73 14.73 17.48 21.04 31.78 27.99 31.61 37.86 39.32 39.79 41.10 40.22 40.79 41.25
44.01 34.94 36.58 37.95 39.21 38.91 30.91 11.92 13.52 22.58 29.46 27.40 27.60 23.78 24.06 27.50 26.65 26.97 23.42 24.32 26.63 27.92 21.45 20.66 20.97 31.66 34.62 35.09 35.45 32.22 28.62 31.77 26.26 25.85 23.08 25.98 32.35 36.37 36.58 36.88 38.08 39.21 39.76 39.10 39.67
32.97 33.26 35.58 40.76 40.61 34.69 24.93 20.18 24.63 31.25 30.64 28.97 24.08 25.67 21.96 23.50 24.35 24.38 23.90 28.63 27.87 30.66 29.64 25.70 20.58 29.51 32.80 35.19 33.50 31.49 34.14 27.57 26.08 8.57 15.40 25.68 24.03 24.72 30.50 34.20 36.84 37.76 38.32 39.23 39.68
33.03 29.46 37.05 40.89 38.69 31.17 18.14 19.30 28.36 33.55 32.98 28.09 25.39 25.17 25.36 23.87 24.85 24.14 24.37 28.59 30.97 29.85 29.87 26.25 24.93 24.72 30.09 25.47 22.84 25.53 24.45 27.98 29.60 24.55 19.60 19.85 20.71 32.53 32.71 35.90 35.63 37.99 39.86 39.20 39.90
31.81 23.59 38.06 39.15 28.83 26.81 19.41 29.11 35.76 32.12 33.72 31.01 29.76 28.20 26.19 26.50 25.34 25.54 25.08 27.54 32.74 30.30 25.88 27.53 26.63 21.00 22.91 30.46 30.61 28.84 24.42 25.55 17.75 20.62 15.13 21.39 20.97 35.57 35.10 36.72 36.93 37.46 39.91 40.92 41.11
29.16 29.81 37.62 36.73 18.23 23.35 26.62 29.74 31.50 29.79 30.06 29.68 28.47 29.65 28.79 26.22 21.68 26.45 26.85 32.84 32.67 29.19 26.38 28.41 21.48 14.47 17.81 22.49 26.73 24.43 26.47 26.86 27.77 21.68 19.18 10.97 19.78 36.58 36.94 36.93 37.84 37.64 39.79 40.29 40.37
28.75 26.46 28.73 30.28 28.53 26.48 26.75 26.99 26.39 32.49 30.49 30.93 28.97 29.62 27.22 25.89 27.46 23.59 26.66 31.25 32.06 30.45 35.83 30.92 24.99 21.38 12.87 17.00 22.91 22.22 24.86 25.60 25.29 18.38 20.21 20.91 24.42 30.98 33.70 33.88 37.29 38.88 40.42 39.25 39.57
31.91 27.04 30.16 21.98 24.24 27.64 28.70 28.02 27.06 27.29 31.21 31.35 27.54 28.00 27.09 18.87 23.61 24.54 26.89 27.67 29.74 33.79 29.07 27.16 19.68 24.00 24.83 24.53 24.62 24.07 23.75 24.68 23.08 24.01 20.59 25.29 24.84 28.93 33.27 34.65 36.97 37.61 38.35 38.32 38.66
32.12 25.52 29.42 26.87 29.88 29.94 30.23 27.28 27.55 28.36 29.26 27.54 26.84 28.14 27.83 25.33 25.93 22.28 26.47 25.72 25.36 26.82 26.13 26.70 17.21 22.30 13.05 24.36 24.56 23.28 25.68 25.08 26.14 26.48 25.90 25.79 26.01 31.59 35.39 36.39 36.20 36.69 37.46 37.60 38.17
32.55 32.92 30.00 28.19 27.04 27.76 26.71 28.67 29.00 30.80 31.21 31.64 29.64 27.18 26.72 28.07 29.72 29.42 29.50 28.73 27.50 26.02 24.69 21.67 17.62 15.33 8.93 21.73 21.85 14.29 23.71 25.17 24.78 26.78 26.84 23.62 25.95 31.38 32.35 34.55 34.69 35.86 36.94 37.21 37.68
MSLP
1020.92 1020.90 1020.63 1020.67 1020.50 1020.29 1020.02 1019.76 1019.64 1019.24 1018.95 1018.76 1018.46 1018.19 1017.83 1017.49 1016.61 1015.70 1015.66 1016.33 1015.83 1014.89 1014.66 1014.32 1014.07 1013.97 1013.31 1013.40 1013.40 1013.81 1014.51 1014.20 1013.21 1012.55 1011.33 1009.79 1009.12 1008.39 1007.62 1007.68 1007.48 1007.19 1007.33 1007.25 1007.63
1021.13 1020.91 1020.95 1020.84 1020.64 1020.32 1020.10 1019.89 1019.48 1019.25 1018.98 1018.73 1018.53 1018.34 1017.97 1017.75 1017.26 1016.36 1016.39 1016.06 1015.76 1015.19 1014.83 1014.72 1014.77 1014.47 1014.30 1014.14 1013.98 1014.07 1014.32 1012.91 1012.50 1011.74 1010.83 1009.92 1009.41 1008.76 1008.24 1007.83 1007.55 1007.32 1007.53 1007.90 1008.19
1021.30 1021.28 1021.15 1020.86 1020.69 1020.50 1020.16 1020.01 1019.60 1019.22 1018.99 1018.91 1018.50 1018.22 1018.10 1017.69 1017.43 1017.08 1016.39 1016.25 1015.88 1015.36 1015.27 1015.12 1015.12 1015.11 1015.38 1015.06 1014.78 1014.37 1012.95 1012.85 1012.05 1011.46 1010.98 1010.40 1009.62 1008.97 1008.46 1007.99 1007.51 1007.38 1007.52 1008.08 1008.53
1021.64 1021.50 1021.24 1021.06 1020.87 1020.63 1020.38 1020.13 1019.89 1019.51 1019.03 1018.72 1018.28 1017.90 1017.53 1017.57 1018.05 1016.99 1016.32 1016.28 1015.97 1015.64 1015.35 1015.41 1015.64 1015.95 1016.35 1016.32 1015.82 1015.27 1013.58 1013.48 1012.89 1012.04 1011.45 1010.89 1009.99 1009.26 1008.67 1007.48 1007.16 1007.23 1007.28 1007.78 1008.37
1021.79 1021.58 1021.39 1021.12 1020.90 1020.66 1020.38 1020.06 1019.85 1019.61 1019.11 1018.73 1018.42 1017.97 1017.67 1017.46 1017.20 1016.36 1016.52 1016.48 1016.16 1016.03 1015.95 1016.00 1016.10 1016.32 1016.86 1016.98 1016.48 1015.43 1014.64 1014.26 1013.85 1013.20 1012.20 1011.07 1010.52 1009.63 1007.78 1007.44 1007.35 1007.19 1007.24 1007.51 1008.04
1021.79 1021.56 1021.40 1021.15 1020.95 1020.72 1020.39 1020.02 1019.73 1019.50 1019.16 1018.85 1018.45 1018.05 1017.91 1017.09 1016.37 1016.71 1016.88 1016.50 1016.50 1016.37 1016.38 1016.44 1016.63 1016.73 1017.05 1017.18 1017.36 1016.06 1015.48 1014.94 1014.21 1013.87 1012.81 1011.89 1010.95 1010.21 1005.48 1006.97 1007.14 1007.34 1007.03 1006.85 1007.25
1021.83 1021.65 1021.49 1021.21 1020.95 1020.66 1020.32 1019.90 1019.50 1019.38 1019.18 1018.85 1018.48 1018.30 1017.89 1017.25 1016.83 1016.60 1016.51 1016.44 1016.12 1016.39 1016.56 1016.44 1016.56 1016.94 1017.33 1017.53 1017.17 1016.82 1015.71 1014.65 1014.05 1013.55 1012.91 1012.23 1010.78 1009.01 1004.49 1007.04 1007.35 1007.27 1007.00 1006.53 1006.51
1021.87 1021.75 1021.52 1021.22 1021.01 1020.65 1020.22 1019.63 1019.07 1019.00 1018.92 1018.87 1018.59 1018.40 1017.70 1016.79 1016.67 1016.57 1016.55 1016.40 1015.94 1016.22 1016.53 1016.33 1016.62 1017.22 1017.65 1017.66 1017.52 1017.47 1016.53 1015.44 1013.87 1013.28 1012.61 1011.74 1008.53 1007.25 1006.41 1007.39 1007.21 1007.50 1007.27 1006.90 1006.12
1021.89 1021.81 1021.54 1021.21 1020.87 1020.39 1019.95 1019.30 1018.68 1018.71 1018.85 1018.85 1018.90 1018.83 1017.69 1016.80 1016.83 1016.79 1016.75 1016.82 1016.59 1016.45 1016.41 1016.44 1016.93 1017.59 1017.87 1018.28 1018.32 1017.99 1017.04 1016.15 1015.07 1013.76 1012.76 1011.58 1008.35 1007.99 1007.91 1007.54 1006.96 1007.16 1007.27 1006.85 1006.33
1021.89 1021.78 1021.54 1021.22 1020.75 1020.20 1019.70 1019.41 1019.11 1019.01 1019.06 1018.96 1019.14 1019.16 1017.71 1017.75 1017.35 1017.12 1016.77 1016.95 1016.99 1017.07 1017.03 1017.06 1017.87 1018.36 1018.94 1019.20 1018.87 1018.47 1017.60 1016.51 1015.34 1014.31 1013.23 1011.90 1009.59 1009.13 1008.72 1007.61 1007.14 1006.82 1007.00 1006.63 1006.40
1021.90 1021.81 1021.61 1021.27 1020.77 1020.22 1019.89 1019.71 1020.04 1019.81 1019.57 1019.65 1019.67 1019.33 1018.47 1018.10 1017.56 1017.39 1017.05 1017.04 1017.21 1017.66 1018.05 1018.18 1018.88 1019.11 1018.90 1018.77 1018.47 1018.22 1017.65 1016.55 1015.65 1015.23 1014.07 1012.26 1010.47 1009.44 1008.60 1007.69 1006.81 1006.52 1006.62 1006.43 1006.06
1021.89 1021.81 1021.65 1021.30 1020.96 1020.41 1020.42 1020.84 1021.26 1021.35 1020.54 1019.67 1019.56 1019.30 1018.71 1018.47 1018.30 1017.83 1017.38 1017.57 1017.84 1018.32 1018.48 1018.91 1018.99 1018.53 1018.52 1018.33 1018.36 1017.96 1017.28 1016.22 1015.29 1014.79 1014.18 1012.75 1010.68 1009.67 1008.89 1007.65 1006.89 1006.35 1005.95 1005.68 1005.61
1021.91 1021.86 1021.76 1021.47 1021.13 1021.00 1021.39 1021.49 1021.34 1021.32 1021.13 1019.90 1019.09 1018.64 1018.20 1018.50 1018.52 1018.20 1017.94 1017.98 1018.33 1018.65 1018.93 1019.30 1018.69 1018.24 1018.27 1017.83 1017.81 1017.22 1016.52 1015.82 1015.18 1014.58 1013.43 1013.16 1010.96 1009.48 1008.34 1007.42 1006.63 1005.80 1005.28 1004.95 1004.95
1021.94 1021.95 1021.87 1021.49 1021.52 1021.67 1021.74 1021.51 1021.40 1021.49 1021.62 1020.15 1018.86 1018.03 1017.77 1018.04 1018.56 1018.40 1018.09 1018.55 1018.73 1019.15 1019.06 1019.04 1018.39 1018.37 1018.14 1017.74 1017.57 1016.04 1015.43 1015.40 1015.08 1014.91 1013.96 1013.33 1012.11 1009.73 1008.62 1007.91 1007.40 1007.12 1005.96 1005.32 1004.97
1021.92 1021.98 1021.88 1021.83 1021.99 1021.97 1021.93 1021.45 1021.54 1021.82 1021.91 1020.45 1018.80 1017.70 1018.06 1018.65 1019.15 1018.93 1018.63 1018.54 1019.18 1019.42 1019.78 1019.53 1018.62 1018.32 1018.13 1017.38 1016.91 1015.72 1014.75 1014.65 1014.75 1014.41 1014.50 1013.35 1013.56 1011.91 1010.49 1009.74 1009.00 1008.32 1007.33 1006.45 1005.89
1021.87 1021.94 1021.85 1022.06 1022.35 1021.97 1021.73 1021.56 1022.02 1022.74 1022.23 1020.44 1019.25 1018.90 1019.04 1019.25 1019.59 1019.62 1019.61 1019.24 1019.48 1019.80 1019.86 1019.49 1018.58 1018.43 1018.07 1017.10 1016.16 1015.42 1015.22 1014.57 1014.63 1014.63 1014.38 1013.45 1012.86 1013.26 1012.95 1012.66 1010.85 1009.64 1008.62 1007.48 1006.62
1021.81 1021.90 1022.03 1022.19 1022.26 1021.94 1021.84 1022.33 1023.48 1023.00 1022.18 1020.98 1020.05 1019.75 1019.94 1020.28 1020.33 1020.54 1020.78 1020.78 1021.25 1020.98 1020.65 1019.87 1018.95 1018.52 1018.41 1016.93 1015.44 1015.55 1015.69 1015.23 1015.36 1015.04 1014.48 1012.73 1013.09 1014.50 1014.08 1013.38 1012.37 1011.24 1009.89 1008.56 1007.61
1021.71 1021.78 1021.89 1021.83 1021.86 1021.91 1022.40 1023.38 1024.22 1022.94 1021.87 1020.81 1020.42 1020.33 1020.65 1020.91 1021.14 1021.36 1021.69 1022.18 1022.00 1022.17 1022.16 1021.60 1019.94 1019.03 1018.43 1018.25 1016.97 1016.18 1015.96 1015.78 1015.48 1014.83 1014.23 1012.82 1013.43 1014.98 1014.91 1014.30 1013.15 1011.77 1010.88 1009.46 1008.44
1021.71 1022.11 1022.01 1021.41 1021.62 1022.15 1023.12 1023.93 1023.13 1022.32 1021.24 1020.85 1020.75 1020.92 1021.26 1021.41 1021.75 1021.83 1022.38 1022.65 1022.51 1022.35 1022.84 1022.23 1020.87 1019.20 1018.32 1017.74 1016.99 1016.14 1016.27 1016.49 1016.15 1014.73 1014.40 1013.96 1014.43 1014.62 1015.51 1014.53 1013.37 1012.42 1011.49 1010.49 1009.78
1022.15 1022.27 1021.79 1021.13 1021.40 1022.53 1023.78 1023.78 1022.65 1021.61 1020.71 1020.57 1020.81 1021.14 1021.56 1021.84 1022.03 1022.18 1022.36 1022.57 1022.54 1022.35 1022.50 1022.41 1021.74 1019.55 1018.60 1018.11 1017.50 1017.31 1017.27 1016.59 1016.66 1016.76 1015.72 1015.38 1015.86 1016.14 1015.97 1015.71 1014.61 1013.59 1012.91 1011.95 1011.24
1022.42 1022.41 1021.43 1021.13 1021.36 1022.88 1023.91 1023.31 1022.06 1020.95 1020.40 1020.52 1020.76 1021.11 1021.51 1021.82 1022.10 1022.26 1022.38 1022.35 1022.21 1022.19 1022.23 1022.39 1022.49 1020.39 1019.48 1019.45 1019.23 1018.37 1018.03 1018.28 1018.19 1018.36 1017.92 1017.12 1018.31 1017.48 1017.15 1016.65 1016.00 1015.19 1014.19 1013.36 1012.63
1022.49 1022.71 1021.55 1021.33 1022.32 1023.45 1023.62 1022.39 1021.13 1020.52 1020.19 1020.29 1020.51 1020.86 1021.32 1021.70 1022.01 1022.17 1022.15 1022.01 1022.10 1022.12 1022.46 1022.50 1022.58 1022.07 1020.96 1020.32 1019.89 1019.63 1019.66 1019.65 1019.58 1019.60 1019.39 1018.94 1019.00 1017.57 1017.38 1017.08 1016.93 1016.34 1015.04 1014.20 1013.17
1022.48 1022.14 1021.67 1021.48 1022.26 1023.32 1023.01 1021.95 1020.99 1020.55 1020.30 1020.37 1020.60 1020.76 1021.17 1021.64 1022.07 1022.06 1021.98 1021.92 1021.94 1022.15 1022.43 1022.61 1022.99 1022.93 1021.75 1021.24 1020.70 1020.72 1020.22 1020.16 1019.92 1020.01 1019.88 1019.54 1018.73 1017.45 1017.13 1016.95 1016.60 1016.38 1015.61 1014.93 1014.26
1022.35 1022.54 1022.33 1022.25 1021.93 1021.76 1022.12 1021.66 1020.98 1020.33 1020.25 1020.28 1020.49 1020.76 1021.26 1021.70 1021.94 1022.14 1022.09 1021.94 1021.92 1022.11 1022.36 1022.57 1023.32 1023.77 1023.80 1023.32 1022.89 1021.82 1020.71 1020.16 1020.01 1020.10 1020.02 1019.80 1019.22 1017.76 1016.71 1016.77 1016.43 1016.13 1016.14 1015.16 1014.81
1021.73 1021.69 1021.16 1021.86 1022.00 1021.42 1020.99 1020.82 1020.61 1020.41 1020.29 1020.30 1020.64 1020.76 1021.23 1022.05 1022.34 1022.34 1022.26 1022.22 1022.10 1022.20 1022.67 1023.22 1023.98 1024.10 1023.86 1023.52 1023.00 1022.14 1021.04 1020.14 1019.80 1019.67 1019.59 1019.88 1019.10 1018.42 1017.52 1017.02 1016.58 1016.26 1015.87 1015.44 1015.18
1020.79 1021.05 1021.12 1021.04 1020.53 1020.97 1020.64 1020.40 1019.97 1019.93 1019.91 1020.23 1020.49 1020.59 1021.07 1021.58 1021.78 1022.33 1022.38 1022.61 1022.58 1022.84 1023.18 1023.84 1024.44 1024.67 1024.47 1023.72 1023.09 1022.08 1020.96 1020.26 1019.81 1019.69 1019.73 1019.60 1019.22 1018.62 1017.97 1017.51 1017.03 1016.63 1016.24 1015.77 1015.63
1019.72 1020.01 1020.36 1020.57 1020.64 1020.47 1019.87 1019.35 1019.24 1019.33 1019.55 1019.43 1019.98 1020.65 1021.05 1021.09 1021.35 1021.68 1022.11 1022.34 1022.61 1023.11 1023.64 1024.31 1024.99 1025.75 1025.61 1024.43 1023.40 1022.52 1021.16 1020.45 1020.10 1019.86 1019.83 1019.65 1019.39 1018.88 1018.54 1018.03 1017.44 1016.94 1016.57 1016.25 1015.94
Wind_Speed
12 12 14 14 14 15 15 16 17 17 18 18 17 17 17 19 18 4 13 4 7 14 8 7 6 8 2 3 0 3 1 5 7 7 6 1 0 3 2 2 2 3 3 3 14
12 13 14 14 15 15 16 16 18 18 17 17 16 15 15 16 4 11 4 10 10 9 9 9 12 9 5 4 4 4 3 7 7 6 4 2 2 3 5 6 3 4 4 8 10
12 13 13 15 15 15 16 16 17 18 17 16 15 14 14 6 3 5 6 12 13 6 3 3 7 4 5 3 2 3 12 2 3 4 3 4 3 4 4 8 6 3 2 8 5
11 13 14 14 16 16 16 15 15 16 17 17 17 18 15 1 6 6 7 13 14 8 7 5 6 5 4 5 6 6 2 3 4 8 6 3 6 6 7 7 7 6 4 7 11
11 12 13 15 16 17 17 16 16 16 16 16 16 16 5 5 4 4 9 11 7 7 5 5 5 3 2 4 9 6 7 6 9 13 12 14 6 10 21 13 9 8 7 7 10
11 13 14 16 17 18 18 18 17 15 14 13 14 12 2 12 2 5 5 5 3 4 4 2 2 2 3 2 2 9 13 14 9 9 9 13 11 8 28 6 11 9 12 9 11
12 13 14 16 18 19 19 19 18 13 10 9 10 3 3 4 4 8 5 4 4 1 4 3 2 2 3 5 4 9 19 19 13 7 8 6 14 21 40 4 7 9 9 10 9
12 13 14 16 18 19 20 20 16 6 3 4 6 3 2 3 5 8 3 7 7 1 2 5 2 2 3 3 6 7 8 5 6 3 6 13 28 21 18 6 10 8 9 9 12
11 13 14 15 17 19 19 17 5 7 3 1 6 4 4 5 6 5 3 4 7 5 3 4 3 3 1 3 5 2 11 16 16 10 7 13 22 11 11 8 9 6 9 10 11
11 13 14 16 17 19 19 3 8 6 1 0 2 4 7 5 4 6 2 2 3 5 6 5 5 2 4 3 6 6 9 9 12 5 17 15 22 15 13 10 11 11 8 9 11
10 12 14 16 18 20 8 3 6 4 6 2 1 1 5 8 3 6 5 5 1 5 4 4 3 5 10 11 16 14 17 19 15 12 16 19 21 15 11 11 14 12 8 10 11
9 11 14 16 17 18 3 5 1 2 3 1 3 5 5 1 2 9 6 6 5 4 3 5 4 8 7 10 12 15 17 20 16 11 16 10 18 15 13 9 10 15 17 12 8
8 9 13 15 18 4 3 3 2 2 3 4 4 3 5 4 2 8 6 5 3 5 7 2 8 9 9 11 11 15 17 13 14 8 15 9 15 10 7 8 9 10 13 14 12
5 7 10 16 2 2 2 6 3 3 5 4 2 2 5 2 4 3 6 3 7 4 6 5 6 9 10 7 11 17 14 15 13 5 4 5 6 5 2 6 6 16 9 8 8
3 5 7 8 1 3 3 3 4 4 5 5 4 1 5 7 1 6 5 6 4 6 2 7 12 10 6 9 9 10 9 14 14 6 6 7 2 5 10 14 19 11 13 11 9
2 4 6 3 2 1 3 4 5 10 6 1 1 3 5 5 5 5 8 7 1 4 2 11 5 2 5 17 18 14 8 6 9 3 4 5 5 3 8 12 18 16 16 14 13
2 3 2 2 1 3 1 4 7 7 4 2 1 2 2 4 4 5 6 9 6 8 14 9 6 5 9 15 1 1 1 1 3 1 4 5 7 4 9 14 13 15 16 15 14
2 3 2 3 1 2 4 6 5 3 4 1 2 1 3 5 3 6 3 6 5 2 4 5 10 7 14 6 6 6 4 2 4 4 4 3 7 5 14 12 14 15 14 17 19
3 2 2 3 6 3 6 5 9 7 5 5 3 3 1 3 1 5 3 4 2 5 3 5 7 5 10 15 6 4 3 1 5 2 3 4 4 4 16 20 20 19 20 21 20
2 1 3 3 7 5 6 6 4 3 4 4 4 3 3 2 3 3 2 2 4 3 2 2 6 2 6 8 7 6 7 1 2 4 3 7 7 10 16 15 18 19 18 18 20
3 2 2 3 4 5 4 7 5 6 2 4 5 3 3 2 1 1 1 0 3 5 3 1 2 8 4 4 7 7 9 5 3 3 4 4 3 5 9 9 13 17 16 15 17
2 1 1 2 5 3 4 5 4 3 3 2 3 3 4 4 2 2 2 3 3 3 4 2 1 5 5 6 4 3 3 5 3 4 1 3 2 7 4 4 7 13 15 17 16
2 2 1 3 5 4 4 3 2 3 4 5 5 3 2 3 1 3 1 3 4 4 3 3 3 5 7 6 6 5 6 7 2 2 2 4 4 5 3 4 4 6 8 10 14
2 1 4 3 1 7 6 4 4 3 3 3 4 4 3 2 2 2 1 2 3 0 6 2 1 4 5 6 3 9 16 10 1 2 1 2 3 12 10 5 5 2 3 7 9
2 5 3 5 5 5 6 8 7 6 5 6 3 5 6 2 1 2 2 2 3 3 3 3 1 2 5 5 4 7 10 9 1 3 4 1 8 8 6 5 5 6 6 8 8
4 4 1 2 5 12 9 8 10 5 8 5 4 7 6 6 7 7 4 3 5 1 2 1 2 3 4 3 3 4 7 5 6 6 5 3 9 4 5 6 6 5 5 4 3
3 1 4 1 3 7 6 7 10 8 5 6 9 5 5 8 7 6 6 3 2 4 3 2 3 3 5 6 4 5 3 4 4 4 2 3 3 3 1 4 5 5 5 5 6
Wind_Direction
25 16 13 5 3 359 357 353 347 346 341 339 342 344 345 339 327 12 45 295 311 326 328 304 9 340 10 357 125 138 223 222 213 160 244 298 163 286 260 220 301 286 299 328 125
19 14 7 1 357 356 353 348 346 343 340 340 341 340 339 333 336 50 294 340 339 359 24 18 2 345 10 359 326 144 197 227 192 192 235 293 322 275 326 323 234 261 80 102 139
13 7 2 359 353 350 350 342 345 345 339 335 339 339 334 343 58 330 312 342 335 7 79 45 19 34 11 338 307 251 237 165 326 357 348 279 273 247 208 272 210 236 309 148 157
7 0 358 355 350 346 340 340 338 336 335 338 344 340 338 109 86 267 313 342 343 334 26 24 17 38 4 327 333 307 345 101 341 342 332 280 324 302 257 238 270 286 315 162 178
359 357 354 351 346 342 337 335 333 332 330 335 340 338 355 45 134 279 346 338 346 351 37 27 38 44 14 323 325 255 333 318 329 322 305 300 259 270 267 247 268 276 291 215 195
354 355 351 348 343 337 333 330 326 327 322 326 337 337 46 74 345 29 347 328 11 8 341 57 14 299 252 262 253 309 315 308 300 295 285 288 289 326 267 260 236 241 253 257 209
346 348 347 344 339 333 328 322 317 311 304 322 332 11 27 71 1 333 355 309 280 120 305 242 152 97 11 321 283 298 307 307 279 216 241 277 264 231 253 349 287 253 252 248 236
342 343 342 339 332 328 324 320 310 283 292 295 354 24 291 330 322 337 1 315 303 330 220 288 177 175 161 262 333 316 288 328 348 254 253 166 258 239 263 256 256 246 253 259 262
335 337 340 336 330 326 328 328 24 105 122 150 24 50 353 333 21 313 210 278 327 333 321 290 109 190 289 344 327 232 275 280 298 325 261 193 264 266 254 257 260 227 247 254 263
333 334 339 334 330 330 331 322 95 83 71 76 143 36 333 339 319 327 299 313 293 344 1 44 50 43 23 96 264 267 273 283 273 355 309 300 277 282 284 281 257 263 233 244 247
328 332 336 333 332 332 360 19 15 346 35 90 239 253 290 303 333 335 309 326 18 51 22 354 50 243 243 227 250 265 270 272 274 286 288 284 286 299 274 258 266 256 227 239 246
323 332 334 333 329 329 66 68 104 205 335 181 248 276 256 217 351 333 14 20 24 341 359 14 258 266 251 266 258 254 258 265 279 262 272 283 292 287 281 254 241 245 249 235 236
319 331 331 328 319 27 19 21 141 60 103 307 209 243 269 144 54 328 27 334 20 350 333 212 267 309 293 283 266 256 245 255 261 280 266 295 285 257 258 233 252 242 241 243 214
312 332 334 326 51 321 33 326 108 59 73 294 356 329 346 146 48 345 350 39 2 332 329 291 278 322 330 286 285 264 236 246 241 236 232 129 299 309 322 311 21 338 295 280 275
305 330 350 29 239 66 311 6 99 58 47 269 304 316 350 90 303 338 315 12 349 300 13 269 295 308 309 272 307 271 270 229 222 204 259 160 209 339 350 353 338 343 3 358 333
293 330 4 17 20 299 329 94 44 46 258 52 335 37 34 12 2 335 6 10 306 330 262 286 265 256 281 297 280 262 332 230 227 152 250 206 129 45 14 351 359 360 2 359 11
279 316 346 106 223 333 66 46 44 123 284 175 125 40 102 339 11 35 15 13 40 1 348 327 314 327 7 322 43 57 116 195 220 15 240 197 152 57 6 3 4 354 359 6 17
284 354 286 207 168 15 53 54 92 227 220 80 85 68 92 18 23 9 36 15 351 57 292 1 328 9 338 336 302 314 303 184 233 176 217 118 167 75 12 358 1 14 9 12 18
42 349 287 264 164 66 77 67 207 210 180 138 72 102 47 15 101 29 68 346 305 16 26 354 285 309 323 341 319 6 19 134 280 263 111 146 83 67 7 359 4 12 12 17 15
88 27 250 135 134 75 80 236 221 224 131 98 152 161 157 271 35 43 24 267 347 348 170 285 287 287 304 345 0 41 320 15 2 16 318 91 51 352 0 358 351 358 16 17 20
59 71 261 155 80 59 167 223 231 232 178 137 187 146 149 162 206 258 249 110 13 307 318 309 191 298 360 17 342 334 19 7 307 12 344 14 48 290 329 2 355 349 355 20 30
126 43 273 156 78 114 170 202 211 172 138 156 130 151 166 182 194 247 208 193 9 309 2 265 250 285 271 315 0 32 23 359 53 343 356 153 206 279 288 5 22 353 358 11 23
201 201 316 111 152 206 264 262 233 152 170 160 181 176 170 173 86 213 235 168 35 54 16 335 345 341 349 353 10 3 326 329 264 65 354 84 332 332 335 312 329 69 24 16 20
93 157 322 37 259 148 161 202 197 203 171 161 172 129 126 168 166 196 225 261 345 226 29 46 210 164 195 216 273 309 319 327 8 75 272 58 12 2 11 20 301 329 66 43 31
165 233 196 203 232 176 160 169 163 170 201 175 207 181 163 156 13 235 225 299 310 127 70 90 274 283 257 270 254 270 292 323 291 274 95 51 58 7 40 1 0 48 38 28 37
168 159 93 259 147 170 182 199 176 184 155 196 188 185 174 172 186 203 192 189 233 111 79 34 258 40 309 18 3 312 353 7 34 36 57 78 65 341 2 21 8 12 7 1 46
177 211 116 202 157 163 206 179 189 151 214 180 179 133 180 219 207 214 195 193 187 163 172 139 116 65 282 353 330 4 355 1 38 32 116 54 307 325 304 309 305 306 321 325 329